Time,TemperatureF,DewpointF,PressureIn,WindDirection,WindDirectionDegrees,WindSpeedMPH,WindSpeedGustMPH,Humidity,HourlyPrecipIn,Conditions,Clouds,dailyrainin,SoftwareType,DateUTC
2013-09-30 00:00:00,61.9,61.0,30.03,SSW,201,0.0,0.0,97,0.00,,,0.00,Wunderground v.1.13,2013-09-30 04:00:00,
2013-09-30 00:10:00,61.7,60.8,30.03,SSW,201,0.0,0.0,97,0.00,,,0.00,Wunderground v.1.13,2013-09-30 04:10:00,
2013-09-30 00:20:00,61.5,60.6,30.03,SSW,201,0.0,0.0,97,0.00,,,0.00,Wunderground v.1.13,2013-09-30 04:20:00,
2013-09-30 00:30:00,61.4,60.5,30.03,SSW,201,0.0,0.0,97,0.00,,,0.00,Wunderground v.1.13,2013-09-30 04:30:00,
2013-09-30 00:40:00,61.1,60.2,30.02,SSW,201,0.0,0.0,97,0.00,,,0.00,Wunderground v.1.13,2013-09-30 04:40:00,
2013-09-30 00:50:00,60.8,59.9,30.02,SSW,201,0.0,0.0,97,0.00,,,0.00,Wunderground v.1.13,2013-09-30 04:50:00,
2013-09-30 01:00:00,60.4,59.5,30.02,SSW,201,0.0,0.0,97,0.00,,,0.00,Wunderground v.1.13,2013-09-30 05:00:00,
2013-09-30 01:10:00,60.3,59.4,30.02,SSW,201,0.0,0.0,97,0.00,,,0.00,Wunderground v.1.13,2013-09-30 05:10:00,
2013-09-30 01:20:00,60.0,59.1,30.02,SSW,201,0.0,0.0,97,0.00,,,0.00,Wunderground v.1.13,2013-09-30 05:20:00,
2013-09-30 01:30:00,59.7,58.8,30.02,SSW,201,0.0,0.0,97,0.00,,,0.00,Wunderground v.1.13,2013-09-30 05:30:00,
2013-09-30 01:40:00,59.5,58.6,30.01,SSW,201,0.0,0.0,97,0.00,,,0.00,Wunderground v.1.13,2013-09-30 05:40:00,
2013-09-30 01:50:00,59.2,58.3,30.01,SSW,201,0.0,0.0,97,0.00,,,0.00,Wunderground v.1.13,2013-09-30 05:50:00,
2013-09-30 02:00:00,59.1,58.2,30.01,SSW,201,0.0,0.0,97,0.00,,,0.00,Wunderground v.1.13,2013-09-30 06:00:00,
2013-09-30 02:10:00,58.9,58.3,30.01,SSW,201,0.0,0.0,98,0.00,,,0.00,Wunderground v.1.13,2013-09-30 06:10:00,
2013-09-30 02:20:00,58.6,57.8,30.01,SSW,201,0.0,0.0,97,0.00,,,0.00,Wunderground v.1.13,2013-09-30 06:20:00,
2013-09-30 02:30:00,58.3,57.7,30.01,SSW,201,0.0,0.0,98,0.00,,,0.00,Wunderground v.1.13,2013-09-30 06:30:00,
2013-09-30 02:40:00,58.2,57.6,30.01,SSW,201,0.0,0.0,98,0.00,,,0.00,Wunderground v.1.13,2013-09-30 06:40:00,
2013-09-30 02:50:00,58.0,57.4,30.01,SSW,201,0.0,0.0,98,0.00,,,0.00,Wunderground v.1.13,2013-09-30 06:50:00,
2013-09-30 03:00:00,57.9,57.3,30.01,SSW,201,0.0,0.0,98,0.00,,,0.00,Wunderground v.1.13,2013-09-30 07:00:00,
2013-09-30 03:10:00,57.7,57.4,30.01,SSW,201,0.0,0.0,99,0.00,,,0.00,Wunderground v.1.13,2013-09-30 07:10:00,
2013-09-30 03:20:00,57.9,57.6,30.01,SSW,201,0.0,0.0,99,0.00,,,0.00,Wunderground v.1.13,2013-09-30 07:20:00,
2013-09-30 03:30:00,58.0,58.0,30.01,SSW,201,0.0,0.0,100,0.00,,,0.00,Wunderground v.1.13,2013-09-30 07:30:00,
2013-09-30 03:40:00,58.0,58.0,30.01,SSW,201,0.0,0.0,100,0.00,,,0.00,Wunderground v.1.13,2013-09-30 07:40:00,
2013-09-30 03:50:00,58.0,58.0,30.01,SSW,201,0.0,0.0,100,0.00,,,0.00,Wunderground v.1.13,2013-09-30 07:50:00,
2013-09-30 04:00:00,58.0,58.0,30.01,SSW,201,0.0,0.0,100,0.00,,,0.00,Wunderground v.1.13,2013-09-30 08:00:00,
2013-09-30 04:10:00,57.9,57.9,30.01,SSW,201,0.0,0.0,100,0.00,,,0.00,Wunderground v.1.13,2013-09-30 08:10:00,
2013-09-30 04:20:00,57.7,57.7,30.01,SSW,201,0.0,0.0,100,0.00,,,0.00,Wunderground v.1.13,2013-09-30 08:20:00,
2013-09-30 04:30:00,57.5,57.5,30.02,SSW,201,0.0,0.0,100,0.00,,,0.00,Wunderground v.1.13,2013-09-30 08:30:00,
2013-09-30 04:40:00,57.4,57.4,30.02,SSW,201,0.0,0.0,100,0.00,,,0.00,Wunderground v.1.13,2013-09-30 08:40:00,
2013-09-30 04:50:00,57.2,57.2,30.02,SSW,201,0.0,0.0,100,0.00,,,0.00,Wunderground v.1.13,2013-09-30 08:50:00,
2013-09-30 05:00:00,57.2,57.2,30.02,SSW,201,0.0,0.0,100,0.00,,,0.00,Wunderground v.1.13,2013-09-30 09:00:00,
2013-09-30 05:10:00,57.1,57.1,30.02,SSW,201,0.0,0.0,100,0.00,,,0.00,Wunderground v.1.13,2013-09-30 09:10:00,
2013-09-30 05:20:00,57.1,57.1,30.02,SSW,201,0.0,0.0,100,0.00,,,0.00,Wunderground v.1.13,2013-09-30 09:20:00,
2013-09-30 05:30:00,56.9,56.9,30.02,SSW,201,0.0,0.0,100,0.00,,,0.00,Wunderground v.1.13,2013-09-30 09:30:00,
2013-09-30 05:40:00,56.6,56.6,30.03,SSW,201,0.0,0.0,100,0.00,,,0.00,Wunderground v.1.13,2013-09-30 09:40:00,
2013-09-30 05:50:00,56.4,56.4,30.03,SSW,201,0.0,0.0,100,0.00,,,0.00,Wunderground v.1.13,2013-09-30 09:50:00,
2013-09-30 06:00:00,56.5,56.5,30.04,SSW,201,0.0,0.0,100,0.00,,,0.00,Wunderground v.1.13,2013-09-30 10:00:00,
2013-09-30 06:10:00,56.5,56.5,30.04,SSW,201,0.0,0.0,100,0.00,,,0.00,Wunderground v.1.13,2013-09-30 10:10:00,
2013-09-30 06:20:00,56.5,56.5,30.04,SSW,201,0.0,0.0,100,0.00,,,0.00,Wunderground v.1.13,2013-09-30 10:20:00,
2013-09-30 06:30:00,56.4,56.4,30.04,SSW,201,0.0,0.0,100,0.00,,,0.00,Wunderground v.1.13,2013-09-30 10:30:00,
2013-09-30 06:40:00,56.2,56.2,30.04,SSW,201,0.0,0.0,100,0.00,,,0.00,Wunderground v.1.13,2013-09-30 10:40:00,
2013-09-30 06:50:00,56.2,56.2,30.04,SSW,201,0.0,0.0,100,0.00,,,0.00,Wunderground v.1.13,2013-09-30 10:50:00,
2013-09-30 07:00:00,56.1,56.1,30.05,SSW,201,0.0,0.0,100,0.00,,,0.00,Wunderground v.1.13,2013-09-30 11:00:00,
2013-09-30 07:10:00,55.9,55.9,30.05,SSW,201,0.0,0.0,100,0.00,,,0.00,Wunderground v.1.13,2013-09-30 11:10:00,
2013-09-30 07:20:00,55.6,55.6,30.05,SSW,201,0.0,0.0,100,0.00,,,0.00,Wunderground v.1.13,2013-09-30 11:20:00,
2013-09-30 07:30:00,55.5,55.5,30.06,SSW,201,0.0,0.0,100,0.00,,,0.00,Wunderground v.1.13,2013-09-30 11:30:00,
2013-09-30 07:40:00,55.3,55.3,30.06,SSW,201,0.0,0.0,100,0.00,,,0.00,Wunderground v.1.13,2013-09-30 11:40:00,
2013-09-30 07:50:00,55.3,55.3,30.06,SSW,201,0.0,0.0,100,0.00,,,0.00,Wunderground v.1.13,2013-09-30 11:50:00,
2013-09-30 08:00:00,55.3,55.3,30.06,SSW,201,0.0,0.0,100,0.00,,,0.00,Wunderground v.1.13,2013-09-30 12:00:00,
2013-09-30 08:10:00,55.3,55.3,30.06,SSW,201,0.0,0.0,100,0.00,,,0.00,Wunderground v.1.13,2013-09-30 12:10:00,
2013-09-30 08:20:00,55.8,55.8,30.06,SSW,201,0.0,0.0,100,0.00,,,0.00,Wunderground v.1.13,2013-09-30 12:20:00,
2013-09-30 08:30:00,55.9,55.9,30.06,SSW,201,0.0,0.0,100,0.00,,,0.00,Wunderground v.1.13,2013-09-30 12:30:00,
2013-09-30 08:40:00,56.2,56.2,30.06,SSW,201,0.0,0.0,100,0.00,,,0.00,Wunderground v.1.13,2013-09-30 12:40:00,
2013-09-30 08:50:00,56.6,56.6,30.06,SSW,201,0.0,0.0,100,0.00,,,0.00,Wunderground v.1.13,2013-09-30 12:50:00,
2013-09-30 09:00:00,57.1,57.1,30.06,SSW,201,0.0,0.0,100,0.00,,,0.00,Wunderground v.1.13,2013-09-30 13:00:00,
2013-09-30 09:10:00,57.7,57.7,30.06,SSW,201,0.0,0.0,100,0.00,,,0.00,Wunderground v.1.13,2013-09-30 13:10:00,
2013-09-30 09:20:00,58.2,58.2,30.06,SSW,201,0.0,0.0,100,0.00,,,0.00,Wunderground v.1.13,2013-09-30 13:20:00,
2013-09-30 09:30:00,58.6,58.6,30.06,SSW,201,0.0,0.0,100,0.00,,,0.00,Wunderground v.1.13,2013-09-30 13:30:00,
2013-09-30 09:40:00,59.2,59.2,30.06,SSW,201,0.0,0.0,100,0.00,,,0.00,Wunderground v.1.13,2013-09-30 13:40:00,
2013-09-30 09:50:00,59.7,59.7,30.06,SSW,201,0.0,0.0,100,0.00,,,0.00,Wunderground v.1.13,2013-09-30 13:50:00,
2013-09-30 10:00:00,60.4,60.4,30.05,SSW,201,0.0,0.0,100,0.00,,,0.00,Wunderground v.1.13,2013-09-30 14:00:00,
2013-09-30 10:10:00,60.8,60.8,30.05,SSW,201,0.0,0.0,100,0.00,,,0.00,Wunderground v.1.13,2013-09-30 14:10:00,
2013-09-30 10:20:00,61.4,61.4,30.05,SSW,201,0.0,0.0,100,0.00,,,0.00,Wunderground v.1.13,2013-09-30 14:20:00,
2013-09-30 10:30:00,63.0,60.0,30.06,SSW,201,0.0,0.0,90,0.00,,,0.00,Wunderground v.1.13,2013-09-30 14:30:00,
2013-09-30 10:40:00,65.1,61.5,30.05,SSW,201,0.0,0.0,88,0.00,,,0.00,Wunderground v.1.13,2013-09-30 14:40:00,
2013-09-30 10:50:00,66.0,60.0,30.05,SSW,201,0.0,0.0,81,0.00,,,0.00,Wunderground v.1.13,2013-09-30 14:50:00,
2013-09-30 11:00:00,67.0,58.1,30.05,SSW,201,0.0,0.0,73,0.00,,,0.00,Wunderground v.1.13,2013-09-30 15:00:00,
2013-09-30 11:10:00,67.7,58.0,30.05,SSW,201,0.0,0.0,71,0.00,,,0.00,Wunderground v.1.13,2013-09-30 15:10:00,
2013-09-30 11:20:00,68.5,59.1,30.05,SSW,195,0.0,0.0,72,0.00,,,0.00,Wunderground v.1.13,2013-09-30 15:20:00,
2013-09-30 11:30:00,69.5,60.5,30.04,SSW,195,0.0,0.0,73,0.00,,,0.00,Wunderground v.1.13,2013-09-30 15:30:00,
2013-09-30 11:40:00,69.7,59.5,30.04,SSW,195,0.0,0.0,70,0.00,,,0.00,Wunderground v.1.13,2013-09-30 15:40:00,
2013-09-30 11:50:00,70.0,59.4,30.04,South,180,0.0,0.0,69,0.00,,,0.00,Wunderground v.1.13,2013-09-30 15:50:00,
2013-09-30 12:00:00,70.0,59.0,30.03,South,180,0.0,0.0,68,0.00,,,0.00,Wunderground v.1.13,2013-09-30 16:00:00,
2013-09-30 12:10:00,71.4,60.7,30.03,South,180,0.0,0.0,69,0.00,,,0.00,Wunderground v.1.13,2013-09-30 16:10:00,
2013-09-30 12:20:00,72.6,60.2,30.03,SE,144,0.0,0.0,65,0.00,,,0.00,Wunderground v.1.13,2013-09-30 16:20:00,
2013-09-30 12:30:00,73.4,59.6,30.02,SE,144,0.0,0.0,62,0.00,,,0.00,Wunderground v.1.13,2013-09-30 16:30:00,
2013-09-30 12:40:00,72.7,60.3,30.01,SSE,157,0.0,0.0,65,0.00,,,0.00,Wunderground v.1.13,2013-09-30 16:40:00,
2013-09-30 12:50:00,73.1,57.9,30.01,ESE,120,0.0,2.0,59,0.00,,,0.00,Wunderground v.1.13,2013-09-30 16:50:00,
2013-09-30 13:00:00,73.4,60.0,30.01,ESE,120,0.0,0.0,63,0.00,,,0.00,Wunderground v.1.13,2013-09-30 17:00:00,
2013-09-30 13:10:00,73.4,59.1,30.01,ESE,121,0.0,0.0,61,0.00,,,0.00,Wunderground v.1.13,2013-09-30 17:10:00,
2013-09-30 13:20:00,73.4,59.1,30.01,ESE,121,0.0,1.0,61,0.00,,,0.00,Wunderground v.1.13,2013-09-30 17:20:00,
2013-09-30 13:30:00,73.4,58.7,30.01,ESE,106,0.0,0.0,60,0.00,,,0.00,Wunderground v.1.13,2013-09-30 17:30:00,
2013-09-30 13:40:00,73.8,58.6,30.01,SE,130,0.0,0.0,59,0.00,,,0.00,Wunderground v.1.13,2013-09-30 17:40:00,
2013-09-30 13:50:00,74.1,58.4,30.01,WSW,253,0.0,0.0,58,0.00,,,0.00,Wunderground v.1.13,2013-09-30 17:50:00,
2013-09-30 14:00:00,74.5,58.8,30.00,SSW,197,0.0,0.0,58,0.00,,,0.00,Wunderground v.1.13,2013-09-30 18:00:00,
2013-09-30 14:10:00,75.0,59.2,29.98,SSW,197,0.0,0.0,58,0.00,,,0.00,Wunderground v.1.13,2013-09-30 18:10:00,
2013-09-30 14:20:00,74.5,56.8,29.98,South,181,0.0,0.0,54,0.00,,,0.00,Wunderground v.1.13,2013-09-30 18:20:00,
2013-09-30 14:30:00,75.0,57.2,29.98,South,184,0.0,0.0,54,0.00,,,0.00,Wunderground v.1.13,2013-09-30 18:30:00,
2013-09-30 14:40:00,74.6,58.4,29.98,South,184,0.0,0.0,57,0.00,,,0.00,Wunderground v.1.13,2013-09-30 18:40:00,
2013-09-30 14:50:00,74.3,57.6,29.98,South,185,0.0,0.0,56,0.00,,,0.00,Wunderground v.1.13,2013-09-30 18:50:00,
2013-09-30 15:00:00,74.1,58.4,29.98,South,185,0.0,0.0,58,0.00,,,0.00,Wunderground v.1.13,2013-09-30 19:00:00,
2013-09-30 15:10:00,73.8,57.1,29.97,South,185,0.0,0.0,56,0.00,,,0.00,Wunderground v.1.13,2013-09-30 19:10:00,
2013-09-30 15:20:00,74.6,58.8,29.97,South,185,0.0,1.0,58,0.00,,,0.00,Wunderground v.1.13,2013-09-30 19:20:00,
2013-09-30 15:30:00,75.2,57.9,29.97,WSW,244,0.0,1.0,55,0.00,,,0.00,Wunderground v.1.13,2013-09-30 19:30:00,
2013-09-30 15:40:00,75.9,56.5,29.96,WSW,245,0.0,0.0,51,0.00,,,0.00,Wunderground v.1.13,2013-09-30 19:40:00,
2013-09-30 15:50:00,76.6,57.1,29.96,WSW,244,0.0,0.0,51,0.00,,,0.00,Wunderground v.1.13,2013-09-30 19:50:00,
2013-09-30 16:00:00,77.5,61.6,29.96,WSW,244,0.0,0.0,58,0.00,,,0.00,Wunderground v.1.13,2013-09-30 20:00:00,
2013-09-30 16:10:00,76.9,59.5,29.96,WSW,244,0.0,0.0,55,0.00,,,0.00,Wunderground v.1.13,2013-09-30 20:10:00,
2013-09-30 16:20:00,75.5,56.6,29.96,North,360,0.0,0.0,52,0.00,,,0.00,Wunderground v.1.13,2013-09-30 20:20:00,
2013-09-30 16:30:00,75.0,57.7,29.96,WNW,294,0.0,0.0,55,0.00,,,0.00,Wunderground v.1.13,2013-09-30 20:30:00,
2013-09-30 16:40:00,74.8,58.5,29.96,WNW,294,0.0,0.0,57,0.00,,,0.00,Wunderground v.1.13,2013-09-30 20:40:00,
2013-09-30 16:50:00,74.3,59.5,29.96,WNW,294,0.0,0.0,60,0.00,,,0.00,Wunderground v.1.13,2013-09-30 20:50:00,
2013-09-30 17:00:00,73.4,58.2,29.97,South,190,0.0,0.0,59,0.00,,,0.00,Wunderground v.1.13,2013-09-30 21:00:00,
2013-09-30 17:10:00,72.7,58.9,29.97,South,190,0.0,0.0,62,0.00,,,0.00,Wunderground v.1.13,2013-09-30 21:10:00,
2013-09-30 17:20:00,72.2,58.5,29.97,South,190,0.0,0.0,62,0.00,,,0.00,Wunderground v.1.13,2013-09-30 21:20:00,
2013-09-30 17:30:00,71.7,59.3,29.97,South,190,0.0,0.0,65,0.00,,,0.00,Wunderground v.1.13,2013-09-30 21:30:00,
2013-09-30 17:40:00,71.4,59.9,29.97,South,190,0.0,0.0,67,0.00,,,0.00,Wunderground v.1.13,2013-09-30 21:40:00,
2013-09-30 17:50:00,71.0,60.3,29.97,South,190,0.0,0.0,69,0.00,,,0.00,Wunderground v.1.13,2013-09-30 21:50:00,
2013-09-30 18:00:00,70.7,60.8,29.98,South,190,0.0,0.0,71,0.00,,,0.00,Wunderground v.1.13,2013-09-30 22:00:00,
2013-09-30 18:10:00,70.5,61.0,29.98,South,190,0.0,0.0,72,0.00,,,0.00,Wunderground v.1.13,2013-09-30 22:10:00,
2013-09-30 18:20:00,70.2,61.1,29.98,South,190,0.0,0.0,73,0.00,,,0.00,Wunderground v.1.13,2013-09-30 22:20:00,
2013-09-30 18:30:00,70.0,60.9,29.98,South,190,0.0,0.0,73,0.00,,,0.00,Wunderground v.1.13,2013-09-30 22:30:00,
2013-09-30 18:40:00,69.8,61.5,29.98,South,190,0.0,0.0,75,0.00,,,0.00,Wunderground v.1.13,2013-09-30 22:40:00,
2013-09-30 18:50:00,69.7,61.8,29.98,South,190,0.0,0.0,76,0.00,,,0.00,Wunderground v.1.13,2013-09-30 22:50:00,
2013-09-30 19:00:00,69.3,61.4,29.98,South,190,0.0,0.0,76,0.00,,,0.00,Wunderground v.1.13,2013-09-30 23:00:00,
2013-09-30 19:10:00,69.2,61.7,29.99,South,190,0.0,0.0,77,0.00,,,0.00,Wunderground v.1.13,2013-09-30 23:10:00,
2013-09-30 19:20:00,69.0,61.9,29.99,South,190,0.0,0.0,78,0.00,,,0.00,Wunderground v.1.13,2013-09-30 23:20:00,
2013-09-30 19:30:00,68.8,62.7,29.99,South,190,0.0,0.0,81,0.00,,,0.00,Wunderground v.1.13,2013-09-30 23:30:00,
2013-09-30 19:40:00,68.5,62.8,29.99,South,190,0.0,0.0,82,0.00,,,0.00,Wunderground v.1.13,2013-09-30 23:40:00,
2013-09-30 19:50:00,68.0,62.3,29.99,South,190,0.0,0.0,82,0.00,,,0.00,Wunderground v.1.13,2013-09-30 23:50:00,
2013-09-30 20:00:00,67.5,62.2,30.00,South,190,0.0,0.0,83,0.00,,,0.00,Wunderground v.1.13,2013-10-01 00:00:00,
2013-09-30 20:10:00,67.2,62.2,30.00,South,190,0.0,0.0,84,0.00,,,0.00,Wunderground v.1.13,2013-10-01 00:10:00,
2013-09-30 20:20:00,67.0,62.3,30.00,South,190,0.0,0.0,85,0.00,,,0.00,Wunderground v.1.13,2013-10-01 00:20:00,
2013-09-30 20:30:00,66.8,62.5,30.01,South,190,0.0,0.0,86,0.00,,,0.00,Wunderground v.1.13,2013-10-01 00:30:00,
2013-09-30 20:40:00,66.7,61.7,30.01,South,190,0.0,0.0,84,0.00,,,0.00,Wunderground v.1.13,2013-10-01 00:40:00,
2013-09-30 20:50:00,66.3,61.0,30.01,South,190,0.0,0.0,83,0.00,,,0.00,Wunderground v.1.13,2013-10-01 00:50:00,
2013-09-30 21:00:00,66.3,61.7,30.02,South,190,0.0,0.0,85,0.00,,,0.00,Wunderground v.1.13,2013-10-01 01:00:00,
2013-09-30 21:10:00,66.2,61.9,30.02,South,190,0.0,0.0,86,0.00,,,0.00,Wunderground v.1.13,2013-10-01 01:10:00,
2013-09-30 21:20:00,66.2,62.2,30.02,South,190,0.0,0.0,87,0.00,,,0.00,Wunderground v.1.13,2013-10-01 01:20:00,
2013-09-30 21:30:00,66.0,62.0,30.02,South,190,0.0,0.0,87,0.00,,,0.00,Wunderground v.1.13,2013-10-01 01:30:00,
2013-09-30 21:40:00,66.0,62.3,30.02,South,190,0.0,0.0,88,0.00,,,0.00,Wunderground v.1.13,2013-10-01 01:40:00,
2013-09-30 21:50:00,66.0,62.7,30.02,South,190,0.0,0.0,89,0.00,,,0.00,Wunderground v.1.13,2013-10-01 01:50:00,
2013-09-30 22:00:00,66.2,62.9,30.03,South,190,0.0,0.0,89,0.00,,,0.00,Wunderground v.1.13,2013-10-01 02:00:00,
2013-09-30 22:10:00,66.2,62.9,30.03,South,190,0.0,0.0,89,0.00,,,0.00,Wunderground v.1.13,2013-10-01 02:10:00,
2013-09-30 22:20:00,66.2,62.9,30.03,South,190,0.0,0.0,89,0.00,,,0.00,Wunderground v.1.13,2013-10-01 02:20:00,
2013-09-30 22:30:00,66.2,62.9,30.03,South,190,0.0,0.0,89,0.00,,,0.00,Wunderground v.1.13,2013-10-01 02:30:00,
2013-09-30 22:40:00,66.0,62.7,30.03,South,190,0.0,0.0,89,0.00,,,0.00,Wunderground v.1.13,2013-10-01 02:40:00,
2013-09-30 22:50:00,65.7,62.4,30.03,South,190,0.0,0.0,89,0.00,,,0.00,Wunderground v.1.13,2013-10-01 02:50:00,
2013-09-30 23:00:00,65.4,62.1,30.03,South,190,0.0,0.0,89,0.00,,,0.00,Wunderground v.1.13,2013-10-01 03:00:00,
2013-09-30 23:10:00,65.1,61.5,30.03,South,190,0.0,0.0,88,0.00,,,0.00,Wunderground v.1.13,2013-10-01 03:10:00,
2013-09-30 23:20:00,64.6,61.6,30.03,South,190,0.0,0.0,90,0.00,,,0.00,Wunderground v.1.13,2013-10-01 03:20:00,
2013-09-30 23:30:00,64.2,61.5,30.03,South,190,0.0,0.0,91,0.00,,,0.00,Wunderground v.1.13,2013-10-01 03:30:00,
2013-09-30 23:40:00,63.9,61.2,30.02,South,190,0.0,0.0,91,0.00,,,0.00,Wunderground v.1.13,2013-10-01 03:40:00,
2013-09-30 23:50:00,63.8,61.1,30.02,South,190,0.0,0.0,91,0.00,,,0.00,Wunderground v.1.13,2013-10-01 03:50:00,